This is the latest recevied weather packets stored in our database for station/object SV9TNF-51. If no packets are shown the sender has not sent any weather packets the latest 10 day(s).
| Time | Temp. | Humidity | Pressure | Rain* | Wind** | Luminosity | Snow |
|---|---|---|---|---|---|---|---|
| 1788619966 | 31.67° C | 41% | 1014.2 hPa | 0 mm | 0.89 m/s, 131° | - | - |
| 1788619665 | 31.11° C | 40% | 1014.2 hPa | 0 mm | 4.02 m/s, 351° | - | - |
| 1788619365 | 31.67° C | 41% | 1014.2 hPa | 0 mm | 0.89 m/s, 130° | - | - |
| 1788619066 | 30.56° C | 40% | 1014.2 hPa | 0 mm | 5.81 m/s, 327° | - | - |
| 1788618765 | 31.67° C | 40% | 1014.2 hPa | 0 mm | 1.34 m/s, 112° | - | - |
| 1788618466 | 30.56° C | 43% | 1014.2 hPa | 0 mm | 4.02 m/s, 90° | - | - |
| 1788618165 | 31.11° C | 42% | 1014.2 hPa | 0 mm | 3.13 m/s, 330° | - | - |
| 1788617865 | 31.11° C | 41% | 1014.2 hPa | 0 mm | 10.28 m/s, 329° | - | - |
| 1788617565 | 31.67° C | 41% | 1014.2 hPa | 0 mm | 8.49 m/s, 180° | - | - |
| 1788617296 | 31.67° C | 42% | 1014.2 hPa | 0 mm | 5.36 m/s, 319° | - | - |
| 1788616965 | 31.67° C | 41% | 1014.2 hPa | 0 mm | 4.92 m/s, 322° | - | - |
| 1788616664 | 32.22° C | 41% | 1014.2 hPa | 0 mm | 1.34 m/s, 153° | - | - |
| 1788616365 | 31.67° C | 41% | 1014.2 hPa | 0 mm | 6.26 m/s, 181° | - | - |
| 1788616064 | 31.67° C | 41% | 1014.2 hPa | 0 mm | 1.79 m/s, 339° | - | - |
| 1788615764 | 31.67° C | 42% | 1014.2 hPa | 0 mm | 7.15 m/s, 326° | - | - |
| 1788615464 | 31.67° C | 43% | 1014.2 hPa | 0 mm | 8.05 m/s, 170° | - | - |
| 1788615164 | 31.67° C | 43% | 1014.2 hPa | 0 mm | 11.18 m/s, 308° | - | - |
| 1788614864 | 31.67° C | 42% | 1014.2 hPa | 0 mm | 10.73 m/s, 338° | - | - |
| 1788614564 | 31.11° C | 44% | 1014.2 hPa | 0 mm | 10.28 m/s, 201° | - | - |
| 1788614264 | 31.67° C | 41% | 1014.2 hPa | 0 mm | 3.13 m/s, 332° | - | - |
| 1788613963 | 31.11° C | 44% | 1014.2 hPa | 0 mm | 7.6 m/s, 162° | - | - |
| 1788613664 | 31.67° C | 42% | 1014.2 hPa | 0 mm | 8.94 m/s, 257° | - | - |
| 1788613363 | 31.11° C | 43% | 1014.2 hPa | 0 mm | 4.02 m/s, 147° | - | - |
| 1788613063 | 31.67° C | 42% | 1014.2 hPa | 0 mm | 10.28 m/s, 343° | - | - |
| 1788612763 | 31.67° C | 42% | 1014.2 hPa | 0 mm | 11.62 m/s, 159° | - | - |
* Rain latest hour (hover to see other rain measurements)
** Current wind speed in m/s (hover to see current wind gust speed)